Location: ??????
(41.3164°N, 22.6615°E)
Time: 00:33:02
(UTC+00:00)

CUBEBUG 2 - Visible Passes

Search period start: 28 June 2022 00:00
Search period end: 08 July 2022 00:00
Orbit: 582 x 695 km, 97.7° (Epoch: 27 June)

Date Brightness Start Highest point End Pass type
(mag) Time Alt. Az. Time Alt. Az. Time Alt. Az.
28 Jun ? 01:07:45 10° NNE 01:11:46 46° E 01:15:09 14° S visible
29 Jun ? 01:30:38 10° NNE 01:34:49 86° ESE 01:38:25 14° SSW visible
30 Jun ? 00:19:01 10° ENE 00:21:01 13° E 00:23:01 10° ESE visible
30 Jun ? 01:53:44 10° N 01:57:48 51° WNW 02:01:41 11° SSW visible
01 Jul ? 00:40:50 10° NE 00:44:13 23° E 00:47:23 11° SSE visible
01 Jul ? 02:17:05 10° N 02:20:42 29° WNW 02:24:23 10° SW visible
02 Jul ? 01:03:20 10° NNE 01:07:20 41° E 01:10:39 15° SSE visible
03 Jul ? 01:26:10 10° NNE 01:30:23 78° ESE 01:33:53 15° S visible
04 Jul ? 00:14:53 10° ENE 00:16:33 12° E 00:18:14 10° ESE visible
04 Jul ? 01:49:13 10° N 01:53:22 57° WNW 01:57:08 13° SSW visible
05 Jul ? 00:36:28 10° NE 00:39:45 21° E 00:42:51 11° SE visible
05 Jul ? 02:12:31 10° N 02:16:17 32° WNW 02:20:08 10° SW visible
06 Jul ? 00:58:53 10° NNE 01:02:52 38° E 01:06:05 15° SSE visible
07 Jul ? 01:21:40 10° NNE 01:25:56 70° ESE 01:29:20 16° S visible
